Regional Weather Roundup
Issued by NWS Charleston, SC

Current Version | Previous Version | Text Only | Print | Product List | Glossary Off
Versions: 1 2 3 4 5 6 7 8 9 10 11 12 13 14 15 16 17 18 19 20 21 22 23 24 25 26 27 28 29 30 31 32 33 34 35 36 37 38 39 40 41 42 43 44 45 46 47 48 49 50
000 ASUS42 KCHS 300526 RWRCHS REGIONAL WEATHER ROUNDUP NATIONAL WEATHER SERVICE CHARLESTON SC 100 AM EDT MON MAR 30 2015 NOTE: "FAIR" INDICATES FEW OR NO CLOUDS BELOW 12,000 FEET WITH NO SIGNIFICANT WEATHER AND/OR OBSTRUCTIONS TO VISIBILITY. NOT ALL STATIONS ARE QUALITY CONTROLLED BY THE NATIONAL WEATHER SERVICE. USE DATA WITH CAUTION...ESPECIALLY DEWPOINT OBSERVATIONS. SCZ027-030-031-034>040-042>050-300600- ...SOUTHEAST SOUTH CAROLINA... CITY SKY/WX TMP DP RH WIND PRES REMARKS N CHARLESTON CLEAR 43 34 70 SW3 30.32F WATERFRONT PRK N/A 52 N/A N/A S9 N/A MOUNT PLEASANT LGT RAIN 39 36 87 CALM 30.32F PINOPOLIS N/A 46 34 61 VRB2 30.25R MONCKS CORNER FAIR 37 34 87 CALM 30.31F SUMMERVILLE FAIR 37 36 93 CALM 30.33S BEAUFORT MCAS CLEAR 41 34 76 CALM 30.32F BEAUFORT ARPT FAIR 43 37 81 CALM 30.32F HILTON HEAD IS CLEAR 48 36 61 S3 30.33F WALTERBORO CLEAR 37 32 81 CALM 30.33S ALLENDALE FAIR 43 34 70 CALM 30.29F ...SOUTHERN MIDLANDS AND PEE DEE... CITY SKY/WX TMP DP RH WIND PRES REMARKS GEORGETOWN NOT AVBL KINGSTREE NOT AVBL ORANGEBURG CLEAR 39 31 72 SW7 30.30F WCI 34 BARNWELL FAIR 45 32 61 S6 30.29F AIKEN FAIR 41 30 65 S9 30.28F MANNING FLURRIES 45 32 61 SW6 30.30F COLUMBIA CLEAR 45 26 47 SW9 30.27F SUMTER CLEAR 39 28 64 S6 30.26F WCI 35 FLORENCE CLEAR 41 30 65 S8 30.28F MYRTLE BEACH CLEAR 41 34 75 S3 30.32F N MYRTLE BEACH CLEAR 43 33 68 SW6 30.30F $$ GAZ063-065-086>088-099>101-113>116-118-119-134>141-150-300600- ...SOUTHEAST GEORGIA... CITY SKY/WX TMP DP RH WIND PRES REMARKS SAVANNAH ARPT CLEAR 43 35 73 CALM 30.33F HUNTER AAF CLEAR 42 38 85 SE2 30.30F FORT STEWART CLEAR 40 35 85 CALM 30.30F STATESBORO CLEAR 43 36 78 CALM 30.30F SYLVANIA CLEAR 43 36 76 CALM 30.31F CLAXTON FAIR 41 37 87 CALM 30.31F ...CSRA...CENTRAL AND FAR SOUTHEAST GEORGIA... CITY SKY/WX TMP DP RH WIND PRES REMARKS THOMSON CLEAR 48 30 50 CALM 30.29F AUGUSTA-BUSH CLEAR 43 31 62 S8 30.28F AUGUSTA-DANIEL CLEAR 47 29 49 S8 30.28F SWAINSBORO FAIR 46 28 49 S5 30.29F VIDALIA CLEAR 45 37 76 S5 30.30F EASTMAN FAIR 46 39 76 S6 30.30F HAZLEHURST FAIR 46 37 71 S6 30.29F ALMA CLEAR 43 37 79 SE3 30.31F WAYCROSS CLEAR 49 42 78 S3 30.31F JESUP FAIR 37 36 93 CALM 30.32F BAXLEY FAIR 45 39 81 CALM 30.30F BRUNSWICK CLEAR 41 37 87 CALM 30.32F SAINT SIMONS CLEAR 53 38 56 S7 30.32F $$ SCZ027-028-034-036>038-045-046-048>050-GAZ119-141-300600- ...LAKE AND SUPPLEMENTAL COASTAL OBSERVATIONS... STATION/POSITION TIME TEMP WIND PRES WAVE SWELL AIR SEA DIR/SP/G HT/PER HT/PER/DIR (UTC) (F) (DEG/KT/KT) (MB) (FT/S) (FT/S/D) UPR LAKE MARION NOT AVBL WINYAH BAY 0400 42 280/ 2 1025.0F LAKE MURRAY 0400 51 200/ 13/ 15 1024.4F ACE BASIN NERRS NOT AVBL FORT PULASKI 0500 51 61 160/ 3/ 5 1027.1F SAPELO ISLAND 0500 50 150/ 5 1027.0S $$ ANZ835-935-AMZ111-154-330-350-352-354-370-450-454-472-300600- ...C-MAN AND BUOY OBSERVATIONS... STATION/POSITION TIME TEMP WIND PRES WAVE SWELL AIR SEA DIR/SP/G HT/PER HT/PER/DIR (UTC) (F) (DEG/KT/KT) (MB) (FT/S) (FT/S/D) BUOY 41004 0450 55 68 190/ 10/ 14 1026.5F 3/ 6 3/ 6 BUOY 41008 0450 56 60 160/ 10/ 14 1026.7F 3/ 8 2/ 90/ 8 FOLLY BEACH CMAN 0500 53 190/ 14/ 16 1026.7F CAPERS NEARSHORE NOT AVBL FRIPP NEARSHORE 0400 54 190/ 16/ 19 1026.3F STATION/POSITION TIME TEMP WIND PRES WAVE SWELL AIR SEA DIR/SP/G HT/PER HT/PER/DIR (UTC) (F) (DEG/KT/KT) (MB) (FT/S) (FT/S/D) 5E ST. MARYS GA 0421 60 N/A 3/10 FRYING PAN BUOY 0450 51 65 190/ 6/ 8 1027.3F 2/ 9 2/110/ 9 BUOY 41025 NOT AVBL CAPE LOOKOUT NC 0500 46 220/ 7/ 10 1025.4F BUOY 41002 0450 53 67 10/ 6/ 12 1027.3F 5/ 9 5/ 10/ 9 BUOY 41010 0420 64 75 50/ 12/ 16 1026.5F ST AUGUSTINE FL 0500 57 60 60/ 7/ 8 1027.7F $$

USA.gov is the U.S. government's official web portal to all federal, state and local government web resources and services.